Location: *
(40.7765°S, 106.5327°E)
Time: 08:36:37
(UTC+00:00)

Cosmos 724 - Visible Passes

Search period start: 06 October 2022 00:00
Search period end: 16 October 2022 00:00
Orbit: 858 x 936 km, 65.6° (Epoch: 05 October)

Date Brightness Start Highest point End Pass type
(mag) Time Alt. Az. Time Alt. Az. Time Alt. Az.
06 Oct 4.5 11:59:55 10° SW 12:05:54 76° WNW 12:11:42 10° NNE visible
07 Oct 4.9 12:01:39 10° SW 12:07:30 57° WNW 12:13:11 10° NNE visible
08 Oct 5.4 12:03:28 10° SW 12:09:03 43° WNW 12:14:31 10° N visible
09 Oct 6.0 12:05:23 10° SW 12:10:35 32° WNW 12:15:41 10° N visible
10 Oct 6.5 12:07:26 10° SW 12:12:04 24° WNW 12:16:38 10° NNW visible
11 Oct 6.8 12:09:42 10° WSW 12:13:32 18° WNW 12:17:19 10° NNW visible
12 Oct 7.1 12:12:26 10° WSW 12:14:57 13° WNW 12:17:27 10° NW visible
